Welcome to the New NWS' Forecast!
Most changes are behind the scenes, but click here for differences you might notice.
Latest weather observations around

Hartford, Hartford-Brainard Airport (KHFD)

Using English Units (Switch to International System of Units)
Date/ Time (EDT) Wind (mph) Vis. (mi) Weather Sky Cond. Temp (°F) Rel. Humidity Wind Chill (°F) Heat Index (°F) Pressure Precip. (in)
Air Dwpt 6 hour Altimeter (inHg) Sea level (inHg) 1 hr 3 hr 6 hr
Max Min
Oct 18 15:53 NW 10 10 Clear CLR 47 16     29% 42   30.26 30.26      
Oct 18 14:53 NNW 9 10 Clear CLR 47 17     30% 43   30.27 30.27      
Oct 18 13:53 NW 14 10 Clear CLR 46 16     30% 40   30.28 30.27      
Oct 18 12:53 NNW 15 10 Clear CLR 46 15     28% 40   30.29 30.29      
Oct 18 11:53 NW 11 10 Clear CLR 45 16     31% 39   30.29 30.29      
Oct 18 10:53 NNW 14 10 Clear CLR 43 16     33% 36   30.29 30.28      
Oct 18 09:53 NW 14 10 Clear CLR 41 18     39% 33   30.29 30.29      
Oct 18 08:53 NW 13 10 Clear CLR 39 19     44% 31   30.28 30.28      
Oct 18 07:53 WNW 8 10 Clear CLR 38 19     46% 32   30.26 30.26      
Oct 18 06:53 NW 11 10 Clear CLR 38 18     44% 30   30.22 30.22      
Oct 18 05:53   10 Clear CLR 40 20     44%     30.19 30.19      
Oct 18 04:53 WNW 11 10 Clear CLR 41 22     46% 34   30.15 30.14      
Oct 18 03:53 WNW 9 10 Clear CLR 41 25     53% 35   30.12 30.12      
Oct 18 02:53 WNW 10 10 Clear CLR 42 25     50% 36   30.1 30.09      
Oct 18 01:53 WNW 10 10 Clear CLR 44 26     49% 39   30.08 30.08      
Oct 18 00:53   10 Partly Cloudy SCT055 45 27     49%     30.07 30.07      
Oct 17 23:53   10 Cloudy FEW055 OVC090 47 28     48%     30.05 30.05      
Oct 17 22:53 WNW 9 10 Mostly Cloudy FEW050 BKN090 47 32     56% 43   30.04 30.03      
Oct 17 21:53 NW 9 10 Clear   48 34     58% 44   30.01 30.01      
Oct 17 20:53 NW 10 10 Mostly Cloudy SCT048 BKN075 BKN090 48 34     58% 43   29.99 29.98      
Oct 17 19:53 Calm 10 Partly Cloudy FEW045 SCT085 49 36     61%     29.96 29.96     0
Oct 17 18:53 WNW 13 10 Mostly Cloudy BKN080 50 36     58%     29.93 29.93      
Oct 17 17:53 NNW 14 10 Mostly Cloudy FEW043 BKN050 52 39     61%     29.89 29.89      
Oct 17 16:53 W 13 10 Mostly Cloudy SCT055 BKN075 53 41     63%     29.85 29.85 0 0  
Oct 17 15:53 WSW 8 10 Cloudy OVC085 60 38     44%     29.81 29.81      
Oct 17 14:53 W 17 10 Mostly Cloudy FEW060 BKN085 60 36     40%     29.81 29.8      
Oct 17 13:53 SW 14 10 Mostly Clear FEW100 60 37     42%     29.8 29.8      
Oct 17 12:53 WSW 13 10 Clear CLR 60 39     46%     29.82 29.82      
Oct 17 11:53 W 9 10 Clear CLR 58 39     49%     29.87 29.86      
Oct 17 10:53 WSW 8 10 Clear CLR 53 37     54%     29.9 29.9      
Oct 17 09:53 WSW 8 10 Clear CLR 52 37     57%     29.91 29.91      
Oct 17 08:53 SSW 3 10 Clear CLR 47 38     71% 46   29.94 29.94      
Oct 17 07:53 S 5 10 Clear CLR 42 39     89% 39   29.93 29.93      
Oct 17 06:53 S 5 10 Clear CLR 40 37     89% 37   29.94 29.94      
Oct 17 05:53 S 6 10 Clear CLR 41 37     86% 37   29.95 29.95      
Oct 17 04:53 S 6 10 Clear CLR 42 36     79% 38   29.97 29.96      
Oct 17 03:53 S 8 10 Clear CLR 43 37     79% 38   29.97 29.97      
Oct 17 02:53 SSW 3 10 Clear CLR 41 38     89% 39   29.99 29.98      
Oct 17 01:53 SE 3 10 Clear CLR 41 38     89% 39   30.01 30.01      
Oct 16 23:53 SSE 5 10 Clear CLR 44 38     79% 41   30.03 30.03      
Oct 16 22:53 S 7 10 Clear CLR 46 36     68% 42   30.03 30.03      
Oct 16 21:53 S 5 10 Clear CLR 45 37     74% 43   30.04 30.04      
Oct 16 20:53 SSW 5 10 Clear CLR 48 36     63% 46   30.04 30.03      
Oct 16 19:53 SW 7 10 Clear   50 36     58%     30.03 30.03      
Oct 16 18:53 SW 5 10 Clear CLR 51 35     54%     30.03 30.03      
Oct 16 17:53 WSW 6 10 Clear CLR 54 34     47%     30.01 30.01      
Oct 16 16:53 WSW 7 10 Clear CLR 56 34     43%     30.01 30.01      
Oct 16 15:53 WNW 9 10 Clear CLR 56 31     38%     30.02 30.02      
Oct 16 14:53 WSW 7 10 Clear CLR 56 32     40%     30.02 30.02      
Oct 16 13:53 7 10 Clear CLR 56 32     40%     30.05 30.05      
Oct 16 12:53 W 10 10 Partly Cloudy FEW045 SCT250 55 33     43%     30.07 30.07      
Oct 16 11:53 NW 13 10 Mostly Cloudy FEW040 BKN250 53        %     30.1 30.1      
Oct 16 10:53 NW 13 10 Clear CLR 50        %     30.11 30.11      
Oct 16 09:53 WNW 13 10 Clear CLR 49        % 44   30.11 30.11      
Oct 16 08:53 WNW 9 10 Clear CLR 48        % 44   30.11 30.11      
Oct 16 07:53 7 10 Clear CLR 46        % 42   30.09 30.09     0
Oct 16 06:53 NW 10 10 Clear CLR 46        % 41   30.07 30.07      
Oct 16 05:53 NW 10 10 Clear CLR 47        % 42   30.06 30.06      
Oct 16 04:53 NW 8 10 Clear CLR 48        % 44   30.03 30.03   0  
Oct 16 03:53 N 11 10 Clear CLR 51        %     29.98 29.98      
Oct 16 02:53   10 Mostly Clear FEW034 54        %     29.95 29.95 0    
Oct 16 01:53 NW 14 10 Light Rain FEW040 BKN050 OVC100 57        %     29.9 29.9 0   0
Oct 16 00:53 WNW 10 5 Rain SCT022 BKN031 OVC070 59        %     29.86 29.86 0    
Oct 15 23:53 WNW 9 9 Light Rain FEW020 SCT027 OVC038 66        %     29.81 29.8 0    
Oct 15 23:09 SW 9 10 Cloudy BKN025 OVC033 67        %     29.78   0    
Oct 15 22:53 SSW 7 10 Light Rain FEW025 BKN033 OVC041 66        %     29.78 29.78 0 0  
Oct 15 22:13 SW 9 10 Cloudy SCT025 BKN030 OVC038 67        %     29.79        
Oct 15 21:53 SSW 11 10 Cloudy BKN025 OVC032 66        %     29.79 29.79      
Oct 15 20:53 SSW 11 10 Cloudy BKN020 BKN028 OVC037 65        %     29.8 29.8 0    
Oct 15 20:12 SSW 11 10 Cloudy BKN015 OVC022 65        %     29.81   0    
Oct 15 19:53 SSW 8 10 Light Rain BKN013 OVC020 64        %     29.83 29.83 0   0
Oct 15 19:22 S 7 10 Cloudy BKN014 OVC023 64        %     29.83        
Oct 15 19:01 SSW 9 10 Cloudy SCT015 BKN023 OVC110 64        %     29.83        
Oct 15 18:53 S 11 10 Mostly Cloudy SCT016 SCT020 BKN110 63        %     29.84 29.84 0    
Oct 15 18:37 S 9 10 Partly Cloudy SCT016 63        %     29.83   0    
Oct 15 18:00 7 10 Cloudy OVC016 63 61     93%     29.86   0    
Oct 15 17:53 S 9 10 Light Rain OVC014 64        %     29.87 29.86 0    
Oct 15 16:53 S 10 10 Cloudy OVC014 64        %     29.9 29.9   0  
Oct 15 16:43 SSW 9 10 Cloudy OVC014 64        %     29.91        
Oct 15 15:53 SSW 9 10 Cloudy OVC016 64 61     90%     29.91 29.91      
Oct 15 15:17 SSW 7 10 Cloudy BKN010 OVC015 62        %     29.93        
Oct 15 14:53 S 7 7 Cloudy OVC007 61        %     29.94 29.93 0    
Oct 15 14:43 S 6 5 Fog/Mist OVC005 60        %     29.94   0    
Oct 15 13:53 S 7 1.75 Light Rain and Fog/Mist OVC007 59        %     29.98 29.98 0   0
Oct 15 12:53 S 7 5 Fog/Mist BKN005 BKN010 OVC021 58        %     30.02 30.01      
Oct 15 12:00 S 6 3 Fog/Mist BKN005 BKN013 OVC021 56        %     30.05        
Oct 15 11:53 S 8 1.5 Fog/Mist BKN005 BKN013 OVC023 56        %     30.05 30.05 0    
Oct 15 10:53 Calm 1.5 Light Rain and Fog/Mist BKN005 OVC025 52        %     30.1 30.09 0 0  
Oct 15 10:18 Calm 1.5 Light Rain and Fog/Mist BKN005 OVC011 50        %     30.12   0    
Oct 15 10:10 Calm 2 Light Rain and Fog/Mist BKN005 BKN009 OVC014 50        %     30.12   0    
Oct 15 09:53 Calm 3 Light Rain and Fog/Mist OVC005 50        %     30.12 30.12 0    
Oct 15 09:17 Calm 3 Light Rain and Fog/Mist OVC009 49        %     30.13   0    
Oct 15 08:53 Calm 3 Light Rain and Fog/Mist BKN014 OVC020 48        %     30.14 30.14 0    
Oct 15 08:48 Calm 3 Light Rain and Fog/Mist BKN014 OVC020 48        %     30.14   0    
Oct 15 07:53 Calm 10 Cloudy BKN024 OVC033 48        %     30.16 30.15 0   0
Oct 15 07:49 Calm 10 Cloudy BKN026 OVC033 48        %     30.16   0    
Oct 15 07:31 Calm 10 Light Rain BKN030 OVC037 48        %     30.16   0    
Oct 15 07:12 Calm 10 Cloudy OVC029 47        %     30.16        
Oct 15 06:53 Calm 10 Cloudy OVC031 47        %     30.17 30.16      
Oct 15 05:53 Calm 10 Cloudy OVC034 46        %     30.18 30.17      
Oct 15 04:53 Calm 10 Cloudy OVC032 44        %     30.19 30.19      
Oct 15 03:53 Calm 10 Clear CLR 43        %     30.2 30.19      
Oct 15 03:11 Calm 7 Clear CLR 42        %     30.2        
Oct 15 03:04 Calm 2.5 Fog/Mist CLR 43        %     30.2        
Oct 15 02:53 Calm 4 Fog/Mist CLR 43        %     30.21 30.21      
Oct 15 01:53 Calm 6 Fog/Mist CLR 44        %     30.22 30.22      
Oct 15 00:53 Calm 6 Fog/Mist   44        %     30.21 30.21      
Oct 14 23:53 Calm 10 Clear CLR 45        %     30.22 30.22      
Oct 14 22:53 Calm 10 Clear CLR 46        %     30.22 30.22      
Oct 14 21:53 Calm 10 Clear CLR 47        %     30.22 30.22      
Oct 14 20:53 S 3 10 Clear CLR 48        % 47   30.21 30.21      
Oct 14 19:53 SSE 5 10 Clear CLR 48        % 46   30.21 30.2      
Oct 14 18:53 S 3 10 Clear CLR 53        %     30.2 30.2      
Oct 14 17:53 SSW 5 10 Clear CLR 57        %     30.18 30.18      
Oct 14 16:53 SSW 6 10 Clear CLR 58        %     30.19 30.19      
Oct 14 15:53 SW 5 10 Clear CLR 59        %     30.19 30.19      
Oct 14 14:53 WSW 11 10 Clear CLR 58        %     30.2 30.19      
Oct 14 13:53 W 10 10 Clear CLR 58 36     44%     30.2 30.2      
Oct 14 12:53 W 8 10 Clear CLR 57 35     44%     30.22 30.22      
Oct 14 11:53 WNW 8 10 Clear CLR 56 39     53%     30.23 30.23      
Oct 14 10:53 5 10 Clear CLR 52 40     63%     30.23 30.23      
Oct 14 09:53 Calm 10 Clear CLR 47 41     80%     30.23 30.22      
Oct 14 08:53 S 5 10 Clear CLR 44 41     89% 41   30.23 30.23      
Oct 14 07:53 SSE 3 10 Clear CLR 42 40     92% 40   30.22 30.21      
Oct 14 06:53 S 3 10 Partly Cloudy SCT002 40 39     97% 38   30.18 30.18      
Oct 14 05:53 Calm 10 Partly Cloudy SCT002 40 39     97%     30.17 30.17      
Oct 14 05:43 Calm 10 Partly Cloudy SCT002 41 39     93%     30.17        
Oct 14 04:53 S 5 10 Clear CLR 41 39     93% 38   30.16 30.16      
Oct 14 03:53 SSE 3 10 Clear CLR 41 39     93% 39   30.14 30.14      
Oct 14 02:53 S 3 10 Clear CLR 41 40     96% 39   30.13 30.13      
Oct 14 01:53 Calm 10 Clear CLR 43 41     93%     30.12 30.11      
Oct 14 00:53 Calm 10 Clear CLR 42 40     92%     30.11 30.11      
Oct 13 23:53 Calm 10 Clear CLR 45 41     86%     30.07 30.07      
Oct 13 22:53 Calm 10 Clear CLR 47 40     76%     30.06 30.06      
Oct 13 21:53 NW 7 10 Clear CLR 49 39     69% 46   30.05 30.05      
Oct 13 20:53 NW 6 10 Mostly Clear FEW060 50 40     68%     30.02 30.02      
Oct 13 19:53 W 3 10 Mostly Cloudy SCT042 BKN049 BKN060 50 42     74%     29.98 29.98      
Oct 13 18:53 WNW 3 10 Clear CLR 51 40     65%     29.94 29.94      
Oct 13 17:53 WNW 5 10 Mostly Clear FEW047 53 40     61%     29.92 29.91      
May 15 04:53 S 5 4 Clear   59 58     96%     29.86 29.85      
May 14 13:53 SSE 8 10 Clear CLR 67 55     66%     29.96 29.96      
May 14 04:31 S 3 10 Cloudy BKN012 OVC028 51 48     89%     30.01        
May 12 08:53 N 3 10 Cloudy OVC055 53 37     54%     30.18 30.18      
May 12 01:53 Calm 10 Mostly Clear FEW120 55 35     47%     30.14 30.14      
May 12 00:53 NNE 5 10 Clear CLR 55 37     51%     30.15 30.14      
May 11 21:53 N 5 10 Clear CLR 62 29     28%     30.1 30.1      
May 11 15:53 N 8 10 Clear CLR 69 36     30%     29.99 29.99      
May 11 11:53 NW 13 10 Mostly Clear FEW040 64 38     38%     29.99 29.98      
Jun 11 10:53 5 10 Clear CLR 84 63     49%   85 30.01 30.01      
Jun 10 18:53   10 Clear   79 57     47%   79 29.93 29.93      
Jun 10 12:51 SW 8 10 Mostly Cloudy BKN075 82 55     40%   82 29.95        
Jun 10 08:53 E 3 10 Clear CLR 71 56     59%   71 29.97 29.97      
Jun 09 22:53 S 3 10 Clear CLR 61 55     81%     29.84 29.83      
Jun 08 01:53 Calm 10 Clear CLR 53 50     89%     30.02 30.02      
Jun 07 09:53 NNE 10 10 Cloudy OVC060 59 49     69%     29.99 29.98      
Jun 07 08:53 N 8 10 Cloudy SCT055 BKN070 OVC080 57 50     77%     29.98 29.98      
Jun 06 14:53 N 9 6 Light Rain and Fog/Mist BKN014 OVC019 51 49     92%     29.82 29.82 0    
Notice The following observation data may not be complete
Jun 06 08:11   2.5 Light Rain and Fog/Mist BKN007 OVC014          %         0    
Jun 06 07:49 N 10 2.5 Light Rain and Fog/Mist OVC012 52 48     87%     29.79   0